DLH370 EDLW-EDDH

Flight info

Callsign DLH370
Flight time N/A
Altitude 23000
Route OSN8Q OSN DCT BASUM DCT MUBZI DCT RIBSO RIBSO7A
Aircraft A20N/M-SDE2E3FGHIRWXY/LB1

Departure

Time 2026-04-29 17:42
Airport Dortmund Airport (EDLW)

Arrival

Time N/A
Airport Hamburg Helmut Schmidt Airport (EDDH)
Time Latitude Longitude Altitude Speed Heading
2026-04-29 17:18 51.51363 7.60887 438 ft 0 kts 141°
2026-04-29 17:31 51.51369 7.60879 423 ft 2 kts 139°
2026-04-29 17:32 51.51380 7.60865 423 ft 2 kts 139°
2026-04-29 17:32 51.51387 7.60855 426 ft 0 kts 137°
2026-04-29 17:32 51.51393 7.60845 426 ft 2 kts 136°
2026-04-29 17:33 51.51405 7.60826 422 ft 2 kts 128°
2026-04-29 17:33 51.51414 7.60804 431 ft 2 kts 105°
2026-04-29 17:33 51.51414 7.60779 427 ft 2 kts 65°
2026-04-29 17:33 51.51411 7.60772 426 ft 0 kts 62°
2026-04-29 17:34 51.51421 7.60800 434 ft 4 kts 62°
2026-04-29 17:34 51.51421 7.60802 434 ft 0 kts 62°
2026-04-29 17:35 51.51429 7.60825 424 ft 7 kts 62°
2026-04-29 17:35 51.51482 7.60977 427 ft 15 kts 62°
2026-04-29 17:35 51.51563 7.61050 427 ft 15 kts 326°
2026-04-29 17:36 51.51553 7.60945 426 ft 10 kts 242°
2026-04-29 17:36 51.51503 7.60796 419 ft 21 kts 242°
2026-04-29 17:36 51.51430 7.60582 421 ft 17 kts 240°
2026-04-29 17:36 51.51423 7.60561 421 ft 1 kts 240°
2026-04-29 17:37 51.51422 7.60559 418 ft 0 kts 240°
2026-04-29 17:38 51.51420 7.60555 427 ft 3 kts 238°
2026-04-29 17:38 51.51392 7.60481 422 ft 12 kts 239°
2026-04-29 17:39 51.51360 7.60340 428 ft 11 kts 278°
2026-04-29 17:39 51.51379 7.60294 415 ft 2 kts 321°
2026-04-29 17:39 51.51380 7.60292 415 ft 0 kts 321°
2026-04-29 17:40 51.51381 7.60291 415 ft 2 kts 323°
2026-04-29 17:40 51.51424 7.60254 425 ft 13 kts 337°
2026-04-29 17:41 51.51499 7.60279 414 ft 0 kts 49°
2026-04-29 17:41 51.51503 7.60287 415 ft 3 kts 57°
2026-04-29 17:42 51.51562 7.60453 415 ft 40 kts 61°
2026-04-29 17:42 51.51851 7.61278 414 ft 125 kts 60°
2026-04-29 17:42 51.52335 7.62686 816 ft 155 kts 62°
2026-04-29 17:42 51.52855 7.64259 1664 ft 163 kts 64°
2026-04-29 17:43 51.53410 7.65882 2740 ft 166 kts 63°
2026-04-29 17:43 51.53984 7.67496 3769 ft 166 kts 63°
2026-04-29 17:43 51.54591 7.69196 4513 ft 185 kts 63°
2026-04-29 17:43 51.55272 7.71111 5058 ft 215 kts 63°
2026-04-29 17:44 51.56100 7.73459 5014 ft 267 kts 63°
2026-04-29 17:44 51.57073 7.76194 4996 ft 282 kts 62°
2026-04-29 17:44 51.58026 7.78841 5000 ft 265 kts 61°
2026-04-29 17:44 51.59239 7.80964 5000 ft 254 kts 36°
2026-04-29 17:45 51.60916 7.81855 5006 ft 268 kts
2026-04-29 17:45 51.62765 7.81366 5000 ft 274 kts 341°
2026-04-29 17:45 51.64484 7.79970 5006 ft 278 kts 335°
2026-04-29 17:45 51.66211 7.78587 5006 ft 276 kts 340°
2026-04-29 17:46 51.67991 7.77477 5006 ft 273 kts 345°
2026-04-29 17:46 51.69808 7.76603 5003 ft 272 kts 349°
2026-04-29 17:46 51.71654 7.75866 5123 ft 275 kts 351°
2026-04-29 17:46 51.73533 7.75182 5757 ft 277 kts 352°
2026-04-29 17:47 51.75398 7.74517 7025 ft 271 kts 352°
2026-04-29 17:47 51.77242 7.73862 8171 ft 272 kts 352°
2026-04-29 17:47 51.79111 7.73238 9229 ft 274 kts 358°
2026-04-29 17:47 51.80960 7.73501 10286 ft 270 kts 21°
2026-04-29 17:48 51.82637 7.75000 10846 ft 286 kts 41°
2026-04-29 17:48 51.84199 7.77196 11256 ft 309 kts 43°
2026-04-29 17:48 51.85835 7.79574 11962 ft 319 kts 43°
2026-04-29 17:48 51.87499 7.81986 12652 ft 321 kts 42°
2026-04-29 17:49 51.89181 7.84403 12924 ft 323 kts 42°
2026-04-29 17:49 51.90873 7.86817 13104 ft 326 kts 41°
2026-04-29 17:49 51.92567 7.89225 13833 ft 329 kts 41°
2026-04-29 17:49 51.94287 7.91670 14779 ft 330 kts 41°
2026-04-29 17:50 51.96023 7.94139 15633 ft 332 kts 41°
2026-04-29 17:50 51.97775 7.96633 16459 ft 335 kts 41°
2026-04-29 17:50 51.99541 7.99150 17275 ft 339 kts 42°
2026-04-29 17:50 52.01295 8.01654 18078 ft 342 kts 42°
2026-04-29 17:51 52.03078 8.04201 18966 ft 341 kts 42°
2026-04-29 17:51 52.04877 8.06776 19637 ft 345 kts 42°
2026-04-29 17:51 52.06682 8.09360 20305 ft 349 kts 42°
2026-04-29 17:51 52.08514 8.11988 20976 ft 352 kts 42°
2026-04-29 17:52 52.10361 8.14639 21637 ft 356 kts 42°
2026-04-29 17:52 52.11596 8.16414 22072 ft 358 kts 42°
2026-04-29 17:52 52.14114 8.20036 22940 ft 364 kts 42°
2026-04-29 17:52 52.16021 8.22784 23282 ft 366 kts 42°
2026-04-29 17:53 52.17930 8.25536 23378 ft 367 kts 42°
2026-04-29 17:53 52.19914 8.28141 23377 ft 367 kts 36°
2026-04-29 17:53 52.22056 8.30321 23379 ft 368 kts 30°
2026-04-29 17:53 52.24327 8.32270 23388 ft 368 kts 30°
2026-04-29 17:54 52.26582 8.34227 23386 ft 367 kts 30°
2026-04-29 17:54 52.28838 8.36196 23386 ft 367 kts 30°
2026-04-29 17:54 52.31092 8.38166 23383 ft 367 kts 30°
2026-04-29 17:54 52.33348 8.40138 23389 ft 367 kts 30°
2026-04-29 17:55 52.35605 8.42110 23391 ft 367 kts 30°
2026-04-29 17:55 52.37864 8.44085 23377 ft 367 kts 30°
2026-04-29 17:55 52.40104 8.46045 23140 ft 365 kts 30°
2026-04-29 17:55 52.42341 8.48006 22898 ft 362 kts 30°
2026-04-29 17:56 52.44557 8.49949 22632 ft 360 kts 30°
2026-04-29 17:56 52.46732 8.51956 22365 ft 357 kts 35°
2026-04-29 17:56 52.48803 8.54190 22107 ft 356 kts 34°
2026-04-29 17:56 52.50853 8.56361 21850 ft 355 kts 34°
2026-04-29 17:57 52.52918 8.58558 21594 ft 353 kts 34°
2026-04-29 17:57 52.54973 8.60766 21335 ft 352 kts 34°
2026-04-29 17:57 52.57012 8.62978 21086 ft 350 kts 35°
2026-04-29 17:57 52.58360 8.64446 20920 ft 350 kts 35°
2026-04-29 17:58 52.61067 8.67403 20599 ft 348 kts 35°
2026-04-29 17:58 52.63077 8.69605 20349 ft 346 kts 35°
2026-04-29 17:58 52.65080 8.71801 20110 ft 345 kts 35°
2026-04-29 17:58 52.67079 8.73993 19863 ft 344 kts 35°
2026-04-29 17:59 52.69066 8.76177 19611 ft 343 kts 35°
2026-04-29 17:59 52.71021 8.78327 19378 ft 342 kts 35°
2026-04-29 17:59 52.73004 8.80509 19139 ft 341 kts 35°
2026-04-29 17:59 52.74978 8.82685 18914 ft 339 kts 35°
2026-04-29 18:00 52.76940 8.84849 18674 ft 338 kts 35°
2026-04-29 18:00 52.78893 8.87006 18408 ft 337 kts 35°
2026-04-29 18:00 52.80839 8.89159 18142 ft 336 kts 35°
2026-04-29 18:00 52.82784 8.91312 17874 ft 335 kts 35°
2026-04-29 18:01 52.84694 8.93428 17621 ft 334 kts 35°
2026-04-29 18:01 52.86626 8.95571 17360 ft 333 kts 35°
2026-04-29 18:01 52.88551 8.97708 17102 ft 333 kts 35°
2026-04-29 18:01 52.90472 8.99844 16847 ft 332 kts 35°
2026-04-29 18:02 52.92388 9.01977 16585 ft 331 kts 35°
2026-04-29 18:02 52.94297 9.04103 16331 ft 330 kts 35°
2026-04-29 18:02 52.96199 9.06224 16034 ft 329 kts 35°
2026-04-29 18:02 52.98096 9.08342 15528 ft 326 kts 35°
2026-04-29 18:03 52.99952 9.10415 15191 ft 313 kts 35°
2026-04-29 18:03 53.01700 9.12368 15023 ft 293 kts 35°
2026-04-29 18:03 53.03316 9.14176 14873 ft 274 kts 35°
2026-04-29 18:03 53.04852 9.15898 14602 ft 261 kts 35°
2026-04-29 18:04 53.06350 9.17580 14033 ft 259 kts 35°
2026-04-29 18:04 53.07840 9.19255 13463 ft 257 kts 35°
2026-04-29 18:04 53.09312 9.20910 12905 ft 254 kts 35°
2026-04-29 18:04 53.10773 9.22553 12320 ft 253 kts 35°
2026-04-29 18:05 53.12224 9.24187 11755 ft 251 kts 35°
2026-04-29 18:05 53.13650 9.25793 11191 ft 249 kts 35°
2026-04-29 18:05 53.15073 9.27398 10808 ft 248 kts 35°
2026-04-29 18:05 53.16509 9.29019 10568 ft 249 kts 36°
2026-04-29 18:06 53.17921 9.30612 10445 ft 239 kts 36°
2026-04-29 18:06 53.19272 9.32137 10149 ft 231 kts 36°
2026-04-29 18:06 53.20611 9.33652 9993 ft 235 kts 36°
2026-04-29 18:06 53.21958 9.35178 9847 ft 233 kts 36°
2026-04-29 18:07 53.23301 9.36701 9713 ft 234 kts 36°
2026-04-29 18:07 53.24197 9.37717 9525 ft 235 kts 36°
2026-04-29 18:07 53.25979 9.39738 9080 ft 233 kts 36°
2026-04-29 18:07 53.27324 9.41266 8741 ft 233 kts 36°
2026-04-29 18:08 53.28661 9.42784 8400 ft 232 kts 36°
2026-04-29 18:08 53.29548 9.43791 8187 ft 232 kts 36°
2026-04-29 18:08 53.30881 9.45308 7850 ft 232 kts 36°
2026-04-29 18:08 53.32213 9.46823 7514 ft 232 kts 36°
2026-04-29 18:09 53.33544 9.48340 7171 ft 231 kts 36°
2026-04-29 18:09 53.34873 9.49854 6882 ft 228 kts 36°
2026-04-29 18:09 53.36172 9.51335 6498 ft 225 kts 37°
2026-04-29 18:09 53.37458 9.52804 6180 ft 225 kts 37°
2026-04-29 18:10 53.38748 9.54278 5971 ft 223 kts 37°
2026-04-29 18:10 53.40037 9.55753 5512 ft 225 kts 37°
2026-04-29 18:10 53.41331 9.57234 5047 ft 224 kts 37°
2026-04-29 18:10 53.42609 9.58696 4889 ft 224 kts 37°
2026-04-29 18:11 53.43827 9.60291 4806 ft 223 kts 46°
2026-04-29 18:11 53.44850 9.62231 4566 ft 220 kts 53°
2026-04-29 18:11 53.45826 9.64210 4241 ft 219 kts 52°
2026-04-29 18:11 53.46798 9.66154 4027 ft 213 kts 52°
2026-04-29 18:12 53.47727 9.67999 3992 ft 200 kts 52°
2026-04-29 18:12 53.48599 9.69734 3995 ft 193 kts 52°
2026-04-29 18:12 53.49522 9.71595 3996 ft 218 kts 52°
2026-04-29 18:12 53.50492 9.73548 3993 ft 218 kts 52°
2026-04-29 18:13 53.51474 9.75521 3994 ft 220 kts 52°
2026-04-29 18:13 53.52437 9.77453 3993 ft 209 kts 52°
2026-04-29 18:13 53.53349 9.79278 3922 ft 200 kts 52°
2026-04-29 18:13 53.54242 9.81066 3698 ft 198 kts 52°
2026-04-29 18:14 53.55130 9.82853 3368 ft 199 kts 52°
2026-04-29 18:14 53.56017 9.84632 3164 ft 194 kts 53°
2026-04-29 18:14 53.56888 9.86380 2579 ft 205 kts 52°
2026-04-29 18:14 53.57822 9.88276 1837 ft 214 kts 52°
2026-04-29 18:15 53.58763 9.90190 1549 ft 218 kts 52°
2026-04-29 18:15 53.59727 9.92198 1671 ft 213 kts 53°
2026-04-29 18:15 53.60632 9.94071 1718 ft 199 kts 52°
2026-04-29 18:15 53.61480 9.95832 1694 ft 188 kts 52°
2026-04-29 18:16 53.62359 9.97675 1763 ft 225 kts 53°
2026-04-29 18:16 53.63333 9.99747 1854 ft 221 kts 53°
2026-04-29 18:16 53.64256 10.01714 1898 ft 207 kts 53°
2026-04-29 18:16 53.65135 10.03589 1979 ft 204 kts 53°
2026-04-29 18:17 53.66052 10.05664 2378 ft 230 kts 54°
2026-04-29 18:17 53.67064 10.07798 2787 ft 225 kts 50°
2026-04-29 18:17 53.68095 10.09692 3109 ft 218 kts 49°
2026-04-29 18:17 53.69132 10.11542 3427 ft 216 kts 49°
2026-04-29 18:18 53.70173 10.13380 3733 ft 218 kts 49°
2026-04-29 18:18 53.71233 10.15231 4049 ft 220 kts 48°
2026-04-29 18:18 53.72191 10.17220 4130 ft 219 kts 65°
2026-04-29 18:18 53.72474 10.19679 3760 ft 220 kts 96°
2026-04-29 18:19 53.71881 10.22034 3498 ft 218 kts 130°
2026-04-29 18:19 53.70628 10.23367 3713 ft 217 kts 160°
2026-04-29 18:19 53.69118 10.23545 3725 ft 232 kts 177°
2026-04-29 18:19 53.67530 10.23675 3547 ft 224 kts 170°
2026-04-29 18:20 53.66002 10.23844 3582 ft 228 kts 176°
2026-04-29 18:20 53.64347 10.23707 3697 ft 233 kts 182°
2026-04-29 18:20 53.62782 10.23296 3740 ft 222 kts 188°
2026-04-29 18:20 53.61338 10.22643 3754 ft 214 kts 194°
2026-04-29 18:21 53.59950 10.21699 3809 ft 218 kts 208°
2026-04-29 18:21 53.58803 10.19974 3951 ft 222 kts 231°
2026-04-29 18:21 53.57823 10.17740 3611 ft 248 kts 232°
2026-04-29 18:21 53.56832 10.15434 3591 ft 238 kts 233°
2026-04-29 18:22 53.55876 10.13148 3630 ft 240 kts 233°
2026-04-29 18:22 53.54936 10.10834 3662 ft 239 kts 234°
2026-04-29 18:22 53.54009 10.08485 3701 ft 246 kts 235°
2026-04-29 18:22 53.53086 10.06077 3751 ft 250 kts 236°